{"data":{"norad_id":66050,"epoch":"2026-05-25T02:17:40.864704Z","epoch_age_seconds":69856,"freshness":"FRESH","line1":"1 66050U 25233T   26145.09561186  .00000128  00000+0  17909-3 0  9995","line2":"2 66050  89.0020  45.5072 0001974  81.4285 278.7089 13.51006934 30073","mean_motion":13.51006934,"eccentricity":0.0001974,"inclination_deg":89.002,"raan_deg":45.5072,"arg_perigee_deg":81.4285,"mean_anomaly_deg":278.7089,"bstar":0.00017909,"rev_number":3007,"period_min":106.58716574729,"perigee_km":1067.086127974,"apogee_km":1070.0260824119,"semimajor_km":7446.6931051929,"source":"CELESTRAK","updated_at":"2026-05-25T13:38:05.924019Z"}}